Lawrence, MA

11:45 PM EST on November 18, 2019 (GMT -0500)
Lawrence Municipal

Weather History for KLWM - August, 2019

Change the Weather History Date:

Monday, August 5, 2019

  Actual Average Record
Temperature  
Mean Temperature 68 °F -  
Max Temperature 81 °F 83 °F 99 °F (1955)
Min Temperature 54 °F 63 °F 50 °F (1962)
Cooling Degree Days 2    
Growing Degree Days 18 (Base 50)    
Moisture  
Dew Point 53 °F    
Average Humidity 59    
Maximum Humidity 83    
Minimum Humidity 36    
Precipitation  
Precipitation 0.00 in - - ()
Sea Level Pressure  
Sea Level Pressure 29.99 in    
Wind  
Wind Speed 4 mph (SW)    
Max Wind Speed 9 mph    
Max Gust Speed -    
Visibility 10 miles    
Events      
Averages and records for this station are not official NWS values.
T = Trace of Precipitation, MM = Missing Value Source: NWS Daily Summary

Daily Weather History Graph

Daily Weather History Graph

Search for Another Location

Airport or City:

Astronomy

Aug. 05, 2019 Rise Set
Actual Time 5:39 AM EDT 8:00 PM EDT
Civil Twilight 5:08 AM EDT 8:31 PM EDT
Nautical Twilight 4:29 AM EDT 9:10 PM EDT
Astronomical Twilight 3:45 AM EDT 9:54 PM EDT
Moon 10:59 AM EDT (8/5) 11:03 PM EDT (8/5)
Length of Visible Light 15h 23m
Length of Day
14h 20m
Waxing Crescent, 28% of the Moon is Illuminated
Aug 5
Waxing Crescent
Aug 7
First Quarter
Aug 15
Full
Aug 23
Last Quarter
Aug 30
New

Hourly Weather History & Observations

Time (EDT) Temp. Heat Index Dew Point Humidity Pressure Visibility Wind Dir Wind Speed Gust Speed Precip Events Conditions
12:54 AM 63.0 °F - 48.0 °F 58% 29.98 in 10.0 mi North 4.6 mph - N/A   Clear
1:54 AM 63.0 °F - 48.0 °F 58% 29.98 in 10.0 mi ENE 3.5 mph - N/A   Clear
2:54 AM 57.0 °F - 48.0 °F 72% 29.99 in 10.0 mi NNE 5.8 mph - N/A   Clear
3:54 AM 55.9 °F - 48.0 °F 75% 29.99 in 10.0 mi Calm Calm - N/A   Clear
4:54 AM 55.0 °F - 48.9 °F 80% 30.01 in 10.0 mi SSW 3.5 mph - N/A   Clear
5:54 AM 54.0 °F - 48.9 °F 83% 30.01 in 10.0 mi Calm Calm - N/A   Clear
6:54 AM 57.9 °F - 51.1 °F 78% 30.03 in 10.0 mi South 3.5 mph - N/A   Clear
7:54 AM 63.0 °F - 52.0 °F 67% 30.03 in 10.0 mi SSW 3.5 mph - N/A   Clear
8:54 AM 68.0 °F - 51.1 °F 55% 30.04 in 10.0 mi Calm Calm - N/A   Clear
9:54 AM 71.1 °F - 50.0 °F 47% 30.03 in 10.0 mi SW 5.8 mph - N/A   Clear
10:54 AM 73.0 °F - 52.0 °F 48% 30.03 in 10.0 mi Variable 4.6 mph - N/A   Clear
11:54 AM 73.9 °F - 51.1 °F 45% 30.02 in 10.0 mi WNW 4.6 mph - N/A   Clear
12:54 PM 75.9 °F - 53.1 °F 45% 30.00 in 10.0 mi WSW 8.1 mph - N/A   Clear
1:54 PM 77.0 °F - 54.0 °F 45% 29.99 in 10.0 mi WNW 9.2 mph - N/A   Clear
2:54 PM 79.0 °F - 55.0 °F 44% 29.98 in 10.0 mi SW 6.9 mph - N/A   Clear
3:54 PM 79.0 °F - 53.1 °F 40% 29.97 in 10.0 mi Calm Calm - N/A   Clear
4:54 PM 81.0 °F 80.5 °F 54.0 °F 39% 29.96 in 10.0 mi Variable 3.5 mph - N/A   Clear
5:54 PM 80.1 °F - 51.1 °F 36% 29.96 in 10.0 mi West 6.9 mph - N/A   Clear
6:54 PM 77.0 °F - 57.0 °F 50% 29.96 in 10.0 mi ESE 6.9 mph - N/A   Clear
7:54 PM 72.0 °F - 55.9 °F 57% 29.96 in 10.0 mi SE 5.8 mph - N/A   Clear
8:54 PM 69.1 °F - 57.0 °F 65% 29.97 in 10.0 mi Variable 3.5 mph - N/A   Clear
9:54 PM 66.9 °F - 57.9 °F 73% 29.97 in 10.0 mi South 3.5 mph - N/A   Clear
10:54 PM 66.9 °F - 59.0 °F 76% 29.98 in 10.0 mi Calm Calm - N/A   Clear
11:54 PM 66.0 °F - 59.0 °F 78% 29.98 in 10.0 mi SSW 4.6 mph - N/A   Clear